Regional Weather Roundup
Issued by NWS Goodland, KS

Home | Current Version | Previous Version | Graphics & Text | Print | Product List | Glossary On
Versions: 1 2 3 4 5 6 7 8 9 10 11 12 13 14 15 16 17 18 19 20 21 22 23 24 25 26 27 28 29 30 31 32 33 34 35 36 37 38 39 40 41 42 43 44 45 46 47 48 49 50
063
ASUS43 KGLD 171359
RWRGLD

GOODLAND FORECAST AREA HOURLY WEATHER ROUNDUP
NATIONAL WEATHER SERVICE GOODLAND KS
800 AM MDT THU AUG 17 2017

...OFFICIAL OBSERVATIONS...

CITY           SKY/WX    TMP DP  RH WIND       PRES   REMARKS
GOODLAND KS    SUNNY     65  57  75 SW12      30.13S
HILL CITY KS   SUNNY     64  61  90 W9        30.09R
IMPERIAL NEB   SUNNY     61  55  81 SW8       30.11R
MCCOOK NEB     SUNNY     61  58  90 W10       30.09R
AKRON CO       SUNNY     64  50  60 S9        30.14F
BURLINGTON CO  PTSUNNY   62  58  86 SW8       30.16S
LIMON CO       SUNNY     61  54  77 S6        30.21R
$$

...UNOFFICIAL OBSERVATIONS...

CITY           SKY/WX    TMP DP  RH WIND       PRES   REMARKS
LENORA KS        N/A     65  32  29 W5          N/A
NORTON KS      SUNNY     63  55  77 SW6       30.07S
TRENTON NEB      N/A     60  32  34 W5          N/A
KIT CARSON CO    N/A     63  57  81 MISG        N/A
YUMA CO        FAIR      61  54  77 S8        30.13S
$$




USA.gov is the U.S. government's official web portal to all federal, state and local government web resources and services.